Burnsville, North Carolina, United States (28714)
Lat: 35.92N, Lon: 82.3W
Wx Zone: NCZ049
Local Info
Past Weather Observations for Wednesday, July 23, 2014

NOTE: This archive is for the closest National Weather Service station to Burnsville. Information may differ from the station used for current weather conditions.

Click here for Long-term Archive

Time Weather Temperature Dewpoint Humidity Pressure Winds Precip Visibility
23:54
Mostly Cloudy
70°F / 21°C 66°F / 19°C 88% 30.06 in
(1018 mb)
N 8.1 mph
(N 13 kph)
- 10SM
22:54
Clear
70°F / 21°C 66°F / 19°C 88% 30.06 in
(1018 mb)
N 5.8 mph
(N 9 kph)
- 10SM
21:54
Overcast
72°F / 22°C 68°F / 20°C 88% 30.06 in
(1018 mb)
NNW 9.2 mph
(NNW 15 kph)
- 10SM
20:54
Mostly Cloudy
73°F / 23°C 70°F / 21°C 89% 30.06 in
(1018 mb)
Calm 0.00 in
(0.00 mm)
10SM
19:54
Overcast
Light Rain
73°F / 23°C 70°F / 21°C 89% 30.06 in
(1018 mb)
Calm 0.00 in
(0.00 mm)
10SM
18:54
Partly Cloudy
75°F / 24°C 66°F / 19°C 74% 30.06 in
(1018 mb)
Calm 0.00 in
(0.00 mm)
10SM
17:54
Overcast
75°F / 24°C 66°F / 19°C 74% 30.06 in
(1018 mb)
NNW 9.2 mph
(NNW 15 kph)
- 10SM
16:54
Overcast
77°F / 25°C 68°F / 20°C 74% 30.09 in
(1019 mb)
NNW 9.2 mph
(NNW 15 kph)
- 10SM
15:54
Mostly Cloudy
75°F / 24°C 66°F / 19°C 74% 30.09 in
(1019 mb)
E 4.6 mph
(E 7 kph)
- 10SM
15:14
Mostly Cloudy
73°F / 23°C 66°F / 19°C 78% 30.12 in
(1020 mb)
Variable 6.9 mph
(Variable 11 kph)
- 10SM
14:54
Overcast
75°F / 24°C 66°F / 19°C 74% 30.12 in
(1020 mb)
Variable 5.8 mph
(Variable 9 kph)
0.00 in
(0.00 mm)
10SM
14:41
Overcast
75°F / 24°C 66°F / 19°C 74% 30.12 in
(1020 mb)
NE 8.1 mph
(NE 13 kph)
0.00 in
(0.00 mm)
10SM
14:22
Overcast
Thunder Storms
77°F / 25°C 66°F / 19°C 69% 30.12 in
(1020 mb)
NE 3.5 mph
(NE 6 kph)
0.00 in
(0.00 mm)
10SM
13:54
Overcast
79°F / 26°C 66°F / 19°C 65% 30.12 in
(1020 mb)
NW 6.9 mph
(NW 11 kph)
- 10SM
12:54
Mostly Cloudy
81°F / 27°C 70°F / 21°C 70% 30.12 in
(1020 mb)
NW 13.8 mph
(NW 22 kph)
- 10SM
11:54
Clear
81°F / 27°C 66°F / 19°C 62% 30.15 in
(1021 mb)
Variable 5.8 mph
(Variable 9 kph)
- 10SM
10:54
Overcast
79°F / 26°C 66°F / 19°C 65% 30.15 in
(1021 mb)
N 8.1 mph
(N 13 kph)
- 10SM
09:54
Mostly Cloudy
75°F / 24°C 66°F / 19°C 74% 30.18 in
(1022 mb)
NNW 8.1 mph
(NNW 13 kph)
- 10SM
09:10
Mostly Cloudy
73°F / 23°C 66°F / 19°C 78% 30.18 in
(1022 mb)
N 6.9 mph
(N 11 kph)
- 10SM
09:01
Overcast
72°F / 22°C 66°F / 19°C 83% 30.18 in
(1022 mb)
NW 3.5 mph
(NW 6 kph)
- 10SM
08:54
Mostly Cloudy
72°F / 22°C 66°F / 19°C 83% 30.18 in
(1022 mb)
NNW 4.6 mph
(NNW 7 kph)
- 10SM
08:44
Mostly Cloudy
72°F / 22°C 66°F / 19°C 83% 30.18 in
(1022 mb)
Variable 3.5 mph
(Variable 6 kph)
- 10SM
08:09
Mostly Cloudy
Fog And Mist
70°F / 21°C 66°F / 19°C 88% 30.18 in
(1022 mb)
NW 5.8 mph
(NW 9 kph)
- 2SM
08:01
Mostly Cloudy
70°F / 21°C 64°F / 18°C 83% 30.18 in
(1022 mb)
N 4.6 mph
(N 7 kph)
- 10SM
07:54
Mostly Cloudy
Fog And Mist
70°F / 21°C 64°F / 18°C 83% 30.18 in
(1022 mb)
NNW 6.9 mph
(NNW 11 kph)
- 1SM
07:34
Mostly Cloudy
Fog And Mist
66°F / 19°C 64°F / 18°C 94% 30.18 in
(1022 mb)
NNW 6.9 mph
(NNW 11 kph)
- 1SM
07:11
Overcast
Fog
66°F / 19°C 66°F / 19°C 100% 30.18 in
(1022 mb)
NNW 4.6 mph
(NNW 7 kph)
- 1SM
06:54
Obscured
Fog
66°F / 19°C 66°F / 19°C 100% 30.18 in
(1022 mb)
Calm - 1/2SM
06:13
Overcast
Fog
66°F / 19°C 66°F / 19°C 100% 30.18 in
(1022 mb)
NNW 4.6 mph
(NNW 7 kph)
- 1/4SM
06:07
Overcast
Fog And Mist
66°F / 19°C 66°F / 19°C 100% 30.18 in
(1022 mb)
NNW 3.5 mph
(NNW 6 kph)
- 1 1/2SM
05:56
Obscured
Fog
66°F / 19°C 66°F / 19°C 100% 30.18 in
(1022 mb)
Calm - 1/2SM
05:54
Obscured
Fog
66°F / 19°C 66°F / 19°C 100% 30.18 in
(1022 mb)
Calm - 1/4SM
05:21
Obscured
Fog
66°F / 19°C 66°F / 19°C 100% 30.18 in
(1022 mb)
Calm - 1/4SM
05:02
Obscured
Fog
66°F / 19°C 66°F / 19°C 100% 30.18 in
(1022 mb)
SSW 3.5 mph
(SSW 6 kph)
- 1/2SM
04:54
Overcast
Fog And Mist
66°F / 19°C 66°F / 19°C 100% 30.18 in
(1022 mb)
SSW 3.5 mph
(SSW 6 kph)
- 3/4SM
04:32
Overcast
Fog And Mist
66°F / 19°C 66°F / 19°C 100% 30.18 in
(1022 mb)
Calm - 1 1/4SM
04:08
Obscured
Fog
66°F / 19°C 66°F / 19°C 100% 30.15 in
(1021 mb)
Calm - 1/2SM
03:54
Obscured
Fog
66°F / 19°C 66°F / 19°C 100% 30.15 in
(1021 mb)
NW 3.5 mph
(NW 6 kph)
- 1/4SM
03:46
Obscured
Fog
66°F / 19°C 66°F / 19°C 100% 30.15 in
(1021 mb)
SSW 3.5 mph
(SSW 6 kph)
- 1/4SM
03:34
Obscured
Fog
68°F / 20°C 66°F / 19°C 94% 30.15 in
(1021 mb)
Calm - 1/2SM
03:14
Obscured
Fog
68°F / 20°C 66°F / 19°C 94% 30.15 in
(1021 mb)
Calm - 1/2SM
03:04
Obscured
Fog And Mist
68°F / 20°C 66°F / 19°C 94% 30.15 in
(1021 mb)
Calm - 3/4SM
03:01
Overcast
Fog And Mist
68°F / 20°C 66°F / 19°C 94% 30.15 in
(1021 mb)
S 3.5 mph
(S 6 kph)
- 1 1/2SM
02:56
Overcast
Fog And Mist
68°F / 20°C 66°F / 19°C 94% 30.15 in
(1021 mb)
S 3.5 mph
(S 6 kph)
- 3SM
02:54
Overcast
Fog And Mist
68°F / 20°C 66°F / 19°C 94% 30.15 in
(1021 mb)
Calm - 1 1/4SM
02:26
Obscured
Fog
68°F / 20°C 66°F / 19°C 94% 30.15 in
(1021 mb)
Calm - 1/4SM
02:18
Obscured
Fog
68°F / 20°C 66°F / 19°C 94% 30.15 in
(1021 mb)
Calm - 1/2SM
02:08
Overcast
Fog And Mist
68°F / 20°C 66°F / 19°C 94% 30.15 in
(1021 mb)
Calm - 1 1/4SM
01:54
Obscured
Fog And Mist
68°F / 20°C 66°F / 19°C 94% 30.18 in
(1022 mb)
Calm - 3/4SM
01:34
Obscured
Fog
68°F / 20°C 66°F / 19°C 94% 30.18 in
(1022 mb)
Calm - 1/2SM
01:27
Overcast
Fog And Mist
68°F / 20°C 66°F / 19°C 94% 30.18 in
(1022 mb)
Calm - 3/4SM
01:21
Overcast
Fog And Mist
68°F / 20°C 66°F / 19°C 94% 30.18 in
(1022 mb)
Calm - 1 3/4SM
01:08
Mostly Cloudy
68°F / 20°C 66°F / 19°C 94% 30.18 in
(1022 mb)
Calm - 10SM
00:54
Partly Cloudy
68°F / 20°C 66°F / 19°C 94% 30.18 in
(1022 mb)
Calm - 10SM
Time Weather Temperature Dewpoint Humidity Pressure Winds Precip Visibility


Weather for websites

WeatherForYou.com, LLC is not responsible for any damages or problems caused by this service. Current weather conditions are obtained from the closest station including government and personal stations which may have varying degrees of accuracy. Weather forecasts are derived from the NOAA NDFD. Like all things, this site belongs to Jesus Christ... He just trusts me to maintain it. If you have any questions or comments email webmaster@weatherforyou.com

Copyright © 2014, WeatherForYou.com LLC. All rights reserved.